Погода в Аксе

Погода в Аксе : погода сейчас, прогноз погоды и архив. Всё, что Вы хотите узнать о погоде в Аксе!

Хотите узнать прогноз погоды в Аксе? Тогда Вам сюда: Погода в Аксе

Поиск расширенной информации на нашем сайте:

Другие новости

Новости СМИ2

Главная страница сайта

Новости сайта

03.07.2017

Напоминаем, что на нашем специализированном сайте Метеоцентр.Азия вы можете получить высокодетализированные автоматические прогнозы погоды по пунктам России, СНГ и мира в авиационном формате (включающие направление и скорость ветра, видимость, явления погоды, количество и форму облачности, нижнюю и верхнюю границу облачности).

Рекомендуем: очень хочется рисовать в Manga Studio.

Погода в Аксе - сегодня

Время (UTC), дата Ветер
(°,м/с) 
Видим.   Явления Облачность Т
(°С)
Тd
(°С)
f(%) Тe
(°С)
Pmin
(гПа)
dP
(гПа)
Po
(мм)
O2
(г/м3)
Тmin Tmax R s Состояние
почвы
03 18.11.17 230 (ЮЗ) 20000 м    9/8 1000 м средняя, верхняя 
[Cu Sc|As trans|Ci sp]
-14.4 -17.7 76 -17  1029.9  0.8  702  300           
06 18.11.17 360 (С) 5{11}  20000 м    8/5 1000 м средняя, верхняя 
[Sc|Ac As|Ci sp]
-8.7 -19.7 41 -13  1027.3  -0.5  702  293           
09 18.11.17 020 (С) 20000 м    9/5 1000 м средняя, верхняя 
[Sc|Ac As|Ci sp]
-10.9 -18.4 54 -11  1028.8  0.7  702  296           
12 18.11.17 тихо ()   н/о    10/8 1000 м средняя 
[Sc|Ac As]
-12.4 -17.7 65 -12  1029.6  0.2  702  298    -8.2       
15 18.11.17 180 (Ю) н/о    3/0 верхняя 
[Ci sp]
-14.9 -18.3 75 -15  1029.6  -0.8  702  300           
18 18.11.17 230 (ЮЗ) н/о    ясно 
-15.7 -18.7 78 -16  1028.9  -1  701  301           
21 18.11.17 250 (З) н/о    ясно 
-15.9 -19.1 76 -21  1027.3  -1.5  700  301           
00 19.11.17 150 (ЮВ) 20000 м    8/0 средняя, верхняя 
[Ac lent|Ci sp]
-16.6 -19.4 79 -17  1027  -0.5  699  301  -18.3         
03 19.11.17 230 (ЮЗ) 20000 м    9/0 средняя, верхняя 
[Ac lent|Ci fib]
-8.2 -14.9 58 -12  1023.7  -0.2  699  292           
06 19.11.17 310 (СЗ) 6-10{11}  20000 м    9/9 1000 м кучево-дожд. 
[Cb cap]
-3.7 -11.4 55 -8  1021.4  -0.6  699  286           
09 19.11.17 060 (СВ) 1{10}  20000 м    9/9 1000 м кучево-дожд. 
[Cb cap]
-4.8 -10.6 64 -4  1023  1.1  700  288           
12 19.11.17 240 (ЮЗ) н/о    9/9 1000 м кучево-дожд. 
[Cb cap]
-5 -11.4 61 -5  1024.5  1.3  701  289    -3.5       
15 19.11.17 200 (Ю) н/о    10/10 1000 м кучево-дожд. 
[Cb cap]
-6.3 -11.6 66 -8  1025.1  0.2  701  290           
18 19.11.17 210 (ЮЗ) н/о    3/3 1000 м 
[Sc diur, vesp]
-9.3 -13.7 70 -13  1026  -0.3  701  293           
21 19.11.17 230 (ЮЗ) н/о    ясно 
-14 -16.1 84 -19  1027.1  -0.6  700  299           
00 20.11.17 210 (ЮЗ) 20000 м    3/0 средняя, верхняя 
[Ac lent|Ci fib]
-16.7 -18.7 84 -21  1027.1  -0.9  700  302  -17.1         
03 20.11.17 210 (ЮЗ) 20000 м    9/0 верхняя 
[Ci sp]
-8.6 -14.5 62 -12  1021.6  -2.2  698  291           
06 20.11.17 190 (Ю) 20000 м    9/0 верхняя 
[Ci sp]
-2 -13.5 41 -5  1015.5  -3.5  695  283           
09 20.11.17 180 (Ю) 20000 м    9/0 средняя, верхняя 
[Ac lent|Ci sp]
-5.4 -14.6 48 -7  1015.1  -1.4  694  286           
12 20.11.17 130 (ЮВ) н/о    4/0 верхняя 
[Ci fib]
-10.7 -15.5 68 -11  1016.6  -0.3  694  292    -1.6       
15 20.11.17 190 (Ю) н/о    6/0 средняя 
[Ac lent]
-10.8 -15.4 69 -11  1016  -0.5  693  292           
18 20.11.17 020 (С) н/о    10/0 средняя 
[Ac As]
-6.7 -14.1 56 -6  1015.1  -0.5  694  288           
21 20.11.17 330 (СЗ) н/о    10/0 средняя 
[Ac As]
-5.8 -14.5 50 -9  1014.9  0.1  694  287           
00 21.11.17 320 (СЗ) 5-10{11}  20000 м    9/9 1000 м кучево-дожд., верхняя 
[Cb cap|Ci sp]
-5.9 -15.1 48 -10  1015.8  0.7  695  287  -11.8         
03 21.11.17 310 (СЗ) 8-12{17}  20000 м    9/8 1000 м кучево-дожд., верхняя 
[Cb cap|Ci fib]
-6.1 -17.6 40 -12  1017.7  1.7  696  288           
Время (UTC), дата Ветер
(°,м/с) 
Видим.   Явления Облачность Т
(°С)
Тd
(°С)
f(%) Тe
(°С)
Pmin
(гПа)
dP
(гПа)
Po
(мм)
O2
(г/м3)
Тmin Tmax R s Состояние
почвы

Для получения пояснительной информации подведите курсор к названию столбца.

ПОГОДА в Аксе - архив

Всё, что Вы хотите узнать о погоде в Аксе - удобно и подробно!

Выберите нужную дату (начиная с 1 января 2015* года) и нажмите кнопку "Найти".
Будут отображены архивные сводки погоды по пункту Акса, начиная с указанной даты.


Отображать данные в формате CSV (для использования в таблицах Excel)


Внимание! Наш архив погоды предназначен исключительно для личного некоммерческого использования в познавательных целях. Если Вам необходимы официальные справки о состоянии погоды (для производственных, юридических, коммерческих и т.п. целей), обращайтесь в органы Росгидромета.

*Примечание: данная дата относится к архиву по метеостанциям СССР (Россия, СНГ, Балтия).
Архив по метеостанциям Зарубежной Европы и Азии (кроме Китая) хранится 10 дней, по другим регионам земного шара (Китай, Африка, Америка, Австралия, Океания) - 1 день.

Акса - район местоположения метеостанции


Название, широта, долгота, высота метеостанции:
Акса 50.3°ш. 113.3°д. 732 м над ур. моря [Российская Федерация]

Дополнительная информация

В oтличие oт бoльшинства пoгoдных сайтoв мы публикуем пoдрoбную метеoинфoрмацию в детальнoм прoфессиoнальнoм фoрмате.

Характеристики температуры и влажнoсти вoздуха измеряются на высoте 2 м в тени вдали oт зданий и деревьев.
Скoрoсть ветра измеряется на высoте 10 м (на урoвне рoста челoвека скoрoсть ветра ниже в 1.5-2 раза). Если метеoстанция нахoдится в гoрoде или в лесу, тo скoрoсть ветра занижена на 2-4 м/с пo сравнению с oткрытым местoм. Скoрoсть ветра над акватoриями крупных рек и oзёр, а также на вершинах хoлмoв на 2-5 м/с выше, чем в oбычных услoвиях.
Атмoсфернoе давление в разных тoчках местнoсти мoжет значительнo oтличаться oт давления на метеoстанции, в зависимoсти oт услoвий рельефа (при пoдъёме на 10 м давление пoнижается примернo на 1 мм рт.ст.).